Flag for Saudi Arabia Weather past 2 weeks in Jeddah, Saudi Arabia

Now
91 °F

Scattered clouds.


Feels Like: 99 °F
Forecast: 87 / 100 °F
Wind: 9 mph from North

Location: Jeddah King Abdul Aziz International Airport

Current Time: Jul 31, 2015 at 8:49:13 AM

Latest Report: Jul 31, 2015 at 8:00 AM


Visibility: N/A

Pressure: 29.59 "Hg

Humidity: 52%

Dew point: 72 °F

Location of JeddahLocation

Historic Weather in Jeddah — Graph

°F

Jeddah temperature yesterday

Maximum temperature yesterday: 104 °F (at 12:00 PM)
Minimum temperature yesterday: 84 °F (at 5:00 AM)
Average temperature yesterday: 94 °F

Past Weeks' High & Low Weather Summary

 TemperatureHumidityPressure
High109 °F (Jul 26, 1:00 PM)89% (Jul 28, 5:00 AM)29.71 "Hg (Jul 28, 5:00 AM)
Low79 °F (Jul 20, 6:00 AM)8% (Jul 23, 3:00 PM)29.53 "Hg (Jul 27, 2:00 AM)
Average93 °F42%29.61 "Hg
* Reported Jul 16 8:00 AM — Jul 31 8:00 AM, Jeddah, Weather by CustomWeather, © 2015

Note: Actual official high and low records may vary slightly from our data, if they occured in-between our weather recording intervals... More about our weather records

Advertising

Jeddah weather history for previous 24 hours

 ConditionsComfort  
Time TempWeatherWind HumidityBarometerVisibility
8:00 AM
Fri, Jul 31
91 °FScattered clouds.9 mph52%29.59 "HgN/A
7:00 AM88 °FSunny.8 mph62%29.59 "Hg10 mi
6:00 AM86 °FSunny.5 mph62%29.56 "Hg10 mi
5:00 AM86 °FClear.5 mph55%29.56 "Hg10 mi
4:00 AM86 °FClear.5 mph55%29.53 "Hg10 mi
3:00 AM86 °FClear.3 mph55%29.53 "Hg10 mi
2:00 AM90 °FClear.5 mph46%29.56 "Hg10 mi
1:00 AM91 °FClear.6 mph34%29.56 "Hg10 mi
12:00 AM91 °FClear.5 mph38%29.56 "Hg10 mi
11:00 PM
Thu, Jul 30
93 °FClear.5 mph34%29.59 "Hg10 mi
10:00 PM95 °FClear.6 mph30%29.59 "Hg10 mi
9:00 PM97 °FClear.8 mph28%29.59 "Hg10 mi
8:00 PM97 °FClear.8 mph28%29.59 "Hg10 mi
7:00 PM99 °FSunny.9 mph33%29.56 "Hg10 mi
6:00 PM100 °FSunny.12 mph31%29.56 "Hg10 mi
5:00 PM100 °FSunny.16 mph31%29.56 "Hg10 mi
4:00 PM99 °FSunny.12 mph39%29.56 "Hg10 mi
3:00 PM100 °FSunny.13 mph40%29.56 "Hg10 mi
2:00 PM97 °FSunny.16 mph44%29.59 "Hg10 mi
1:00 PM102 °FSunny.14 mph31%29.62 "Hg10 mi
12:00 PM104 °FSunny.16 mph29%29.62 "Hg10 mi
11:00 AM100 °FSunny.9 mph35%29.65 "Hg10 mi
10:00 AM97 °FSunny.14 mph44%29.65 "Hg10 mi
9:00 AM93 °FSunny.12 mph53%29.62 "Hg10 mi
8:00 AM90 °FSunny.12 mph55%29.62 "Hg10 mi
Weather by CustomWeather, © 2015

See weather overviewHow to use our weather pages